Weather History for Alexandria, Egypt

Change the Weather History Date:

Tuesday, September 17, 2013

  Actual Average Record
Temperature  
Mean Temperature 78 °F -  
Max Temperature 91 °F 80 °F 95 °F (2002)
Min Temperature 65 °F 67 °F 65 °F (2013)
Cooling Degree Days 13    
Growing Degree Days 28 (Base 50)    
Moisture  
Dew Point 65 °F    
Average Humidity 63    
Maximum Humidity 94    
Minimum Humidity 30    
Precipitation  
Precipitation 0.00 in 0.01 in - ()
Sea Level Pressure  
Sea Level Pressure 29.81 in    
Wind  
Wind Speed 5 mph ()    
Max Wind Speed 15 mph    
Max Gust Speed -    
Visibility 5.2 miles    
Events      
Averages and records for this station are not official NWS values.
T = Trace of Precipitation, MM = Missing Value Source: Averaged Metar Reports

Daily Weather History Graph

Daily Weather History Graph

Search for Another Location

Airport:

Trip Planner

Search our weather history database for the weather conditions in past years. The results will help you decide how hot, cold, wet, or windy it might be!

Date:

Astronomy

Sep. 17, 2013 Rise Set
Actual Time 5:45 AM EET 6:03 PM EET
Civil Twilight 5:21 AM EET 6:27 PM EET
Nautical Twilight 4:52 AM EET 6:55 PM EET
Astronomical Twilight 4:24 AM EET 7:24 PM EET
Moon 4:33 PM EET (9/17) 3:24 AM EET (9/17)
Length of Visible Light 13h 06m
Length of Day
12h 17m
Waxing Gibbous, 94% of the Moon is Illuminated
Sep 17
Waxing Gibbous
Sep 19
Full
Sep 27
Last Quarter
Oct 5
New
Oct 12
First Quarter

Hourly Weather History & Observations

Time (EET) Temp. Heat Index Dew Point Humidity Pressure Visibility Wind Dir Wind Speed Gust Speed Precip Events Conditions
12:00 AM 71.6 °F - 64.4 °F 78% 29.83 in - SSE 2.3 mph - N/A   Clear
1:00 AM 68.0 °F - 64.4 °F 88% 29.83 in - Calm Calm - N/A   Clear
2:00 AM 68 °F - 64 °F 82% 29.83 in 6 mi SSE 2.3 mph - -  
2:00 AM 68.0 °F - 64.4 °F 88% 29.80 in - SSE 2.3 mph - N/A   Clear
3:00 AM 68.0 °F - 64.4 °F 88% 29.83 in - South 2.3 mph - N/A   Clear
4:00 AM 68.0 °F - 64.4 °F 88% 29.80 in - South 4.6 mph - N/A   Clear
5:00 AM 68.0 °F - 64.4 °F 88% 29.80 in - SE 2.3 mph - N/A   Clear
6:00 AM 66.2 °F - 64.4 °F 94% 29.83 in 3.7 mi Calm Calm - N/A   Unknown
7:00 AM 71.6 °F - 66.2 °F 83% 29.83 in 3.7 mi SSE 2.3 mph - N/A   Unknown
8:00 AM 77 °F - 69 °F 70% 29.85 in 6 mi South 4.6 mph - -  
8:00 AM 77.0 °F - 68.0 °F 74% 29.83 in - South 4.6 mph - N/A   Clear
9:00 AM 80.6 °F 83.9 °F 69.8 °F 70% 29.83 in - SSW 8.1 mph - N/A   Clear
10:00 AM 82.4 °F 85.4 °F 68.0 °F 62% 29.83 in - SSW 10.4 mph - N/A   Clear
11:00 AM 86.0 °F 89.4 °F 68.0 °F 55% 29.83 in - SW 9.2 mph - N/A   Clear
12:00 PM 89.6 °F 91.1 °F 64.4 °F 43% 29.83 in - WSW 10.4 mph - N/A   Clear
1:00 PM 89.6 °F 93.4 °F 68.0 °F 49% 29.80 in - West 9.2 mph - N/A   Clear
2:00 PM 90 °F - 63 °F 30% 29.82 in 6 mi West 13.8 mph - -  
2:00 PM 89.6 °F 90.1 °F 62.6 °F 40% 29.80 in - West 13.8 mph - N/A   Clear
3:00 PM 91.4 °F 93.2 °F 64.4 °F 41% 29.80 in - West 15.0 mph - N/A   Clear
4:00 PM 91.4 °F 92.1 °F 62.6 °F 38% 29.77 in - West 13.8 mph - N/A   Clear
5:00 PM 89.6 °F 88.9 °F 59.0 °F 36% 29.77 in - WNW 13.8 mph - N/A   Clear
6:00 PM 86.0 °F 86.1 °F 60.8 °F 43% 29.77 in - WNW 9.2 mph - N/A   Clear
7:00 PM 84.2 °F 85.0 °F 62.6 °F 48% 29.77 in - WNW 6.9 mph - N/A   Clear
8:00 PM 83 °F - 64 °F 44% 29.79 in 6 mi West 5.8 mph - -  
8:00 PM 82.4 °F 83.9 °F 64.4 °F 54% 29.77 in - West 5.8 mph - N/A   Clear
9:00 PM 80.6 °F 82.3 °F 64.4 °F 58% 29.80 in - West 10.4 mph - N/A   Clear
10:00 PM 80.6 °F 83.2 °F 68.0 °F 65% 29.80 in - West 9.2 mph - N/A   Clear
11:00 PM 80.6 °F 84.6 °F 71.6 °F 74% 29.80 in - WNW 9.2 mph - N/A   Clear